KQA2638 HKMO-HKJK

Flight info

Callsign KQA2638
Flight time 0h 43m
Altitude 24000
Route EVIDI2A UTIKU Q315 UTEPI UTEPI2C
Aircraft B738/M-SDE2E3FGHIRWXY/LB1

Departure

Time 2026-04-22 19:56
Airport Moi International Airport (HKMO)

Arrival

Time 2026-04-22 20:40
Airport Jomo Kenyatta International Airport (HKJK)
Time Latitude Longitude Altitude Speed Heading
2026-04-22 19:40 -4.03261 39.60157 198 ft 0 kts 119°
2026-04-22 19:44 -4.03251 39.60140 210 ft 4 kts 117°
2026-04-22 19:44 -4.03243 39.60121 212 ft 4 kts 107°
2026-04-22 19:45 -4.03245 39.60111 205 ft 4 kts 144°
2026-04-22 19:45 -4.03243 39.60100 208 ft 4 kts 218°
2026-04-22 19:45 -4.03229 39.60111 212 ft 3 kts 190°
2026-04-22 19:45 -4.03207 39.60114 205 ft 4 kts 191°
2026-04-22 19:46 -4.03181 39.60120 204 ft 4 kts 199°
2026-04-22 19:46 -4.03156 39.60131 212 ft 4 kts 207°
2026-04-22 19:46 -4.03140 39.60139 210 ft 1 kts 209°
2026-04-22 19:46 -4.03137 39.60141 211 ft 0 kts 209°
2026-04-22 19:49 -4.03144 39.60137 210 ft 3 kts 209°
2026-04-22 19:49 -4.03180 39.60117 206 ft 8 kts 209°
2026-04-22 19:49 -4.03231 39.60089 203 ft 8 kts 208°
2026-04-22 19:50 -4.03280 39.60063 198 ft 8 kts 211°
2026-04-22 19:50 -4.03316 39.60022 200 ft 8 kts 247°
2026-04-22 19:50 -4.03323 39.59970 203 ft 8 kts 268°
2026-04-22 19:50 -4.03324 39.59918 201 ft 7 kts 269°
2026-04-22 19:51 -4.03325 39.59868 203 ft 7 kts 269°
2026-04-22 19:51 -4.03325 39.59820 203 ft 7 kts 269°
2026-04-22 19:51 -4.03326 39.59773 197 ft 7 kts 269°
2026-04-22 19:51 -4.03330 39.59727 196 ft 7 kts 248°
2026-04-22 19:52 -4.03362 39.59694 204 ft 6 kts 217°
2026-04-22 19:52 -4.03399 39.59671 200 ft 6 kts 207°
2026-04-22 19:52 -4.03438 39.59650 207 ft 6 kts 208°
2026-04-22 19:52 -4.03476 39.59630 199 ft 6 kts 208°
2026-04-22 19:53 -4.03513 39.59610 196 ft 6 kts 209°
2026-04-22 19:53 -4.03551 39.59588 204 ft 7 kts 212°
2026-04-22 19:53 -4.03582 39.59568 207 ft 9 kts 210°
2026-04-22 19:53 -4.03669 39.59520 197 ft 12 kts 208°
2026-04-22 19:54 -4.03744 39.59479 205 ft 13 kts 210°
2026-04-22 19:54 -4.03797 39.59448 205 ft 14 kts 209°
2026-04-22 19:54 -4.03923 39.59370 196 ft 18 kts 222°
2026-04-22 19:54 -4.03970 39.59278 194 ft 12 kts 260°
2026-04-22 19:55 -4.03961 39.59216 196 ft 7 kts 300°
2026-04-22 19:55 -4.03923 39.59191 199 ft 7 kts 351°
2026-04-22 19:55 -4.03874 39.59211 204 ft 18 kts 28°
2026-04-22 19:55 -4.03480 39.59430 205 ft 110 kts 29°
2026-04-22 19:56 -4.02572 39.59929 213 ft 185 kts 28°
2026-04-22 19:56 -4.01757 39.60386 401 ft 211 kts 30°
2026-04-22 19:56 -4.00538 39.61147 1516 ft 206 kts 30°
2026-04-22 19:56 -3.99134 39.61397 2509 ft 219 kts 349°
2026-04-22 19:57 -3.97246 39.60395 2925 ft 252 kts 324°
2026-04-22 19:57 -3.95757 39.59367 3389 ft 267 kts 324°
2026-04-22 19:57 -3.94679 39.58647 3608 ft 283 kts 326°
2026-04-22 19:57 -3.92981 39.57558 4260 ft 295 kts 327°
2026-04-22 19:58 -3.90654 39.56130 5533 ft 297 kts 328°
2026-04-22 19:58 -3.89472 39.55422 6116 ft 300 kts 329°
2026-04-22 19:58 -3.87656 39.54347 6950 ft 304 kts 330°
2026-04-22 19:58 -3.85828 39.53277 7870 ft 304 kts 330°
2026-04-22 19:59 -3.83998 39.52211 8767 ft 305 kts 330°
2026-04-22 20:00 -3.75748 39.41915 12769 ft 349 kts 294°
2026-04-22 20:00 -3.74729 39.39700 13537 ft 352 kts 294°
2026-04-22 20:01 -3.73693 39.37466 14213 ft 355 kts 295°
2026-04-22 20:01 -3.72645 39.35218 14865 ft 358 kts 295°
2026-04-22 20:01 -3.71583 39.32948 15503 ft 362 kts 295°
2026-04-22 20:01 -3.70502 39.30644 16137 ft 366 kts 295°
2026-04-22 20:02 -3.69415 39.28331 16771 ft 370 kts 295°
2026-04-22 20:02 -3.68314 39.25991 17400 ft 374 kts 295°
2026-04-22 20:02 -3.67201 39.23625 18010 ft 377 kts 295°
2026-04-22 20:02 -3.66075 39.21233 18568 ft 381 kts 296°
2026-04-22 20:03 -3.64939 39.18818 19063 ft 386 kts 296°
2026-04-22 20:03 -3.63786 39.16370 19560 ft 390 kts 296°
2026-04-22 20:03 -3.62626 39.13904 20054 ft 394 kts 296°
2026-04-22 20:03 -3.61450 39.11407 20549 ft 398 kts 296°
2026-04-22 20:04 -3.60262 39.08884 21012 ft 403 kts 296°
2026-04-22 20:04 -3.59075 39.06363 21482 ft 407 kts 296°
2026-04-22 20:04 -3.57862 39.03786 21945 ft 411 kts 296°
2026-04-22 20:04 -3.56637 39.01183 22420 ft 415 kts 296°
2026-04-22 20:05 -3.55401 38.98558 22884 ft 418 kts 295°
2026-04-22 20:05 -3.54163 38.95929 23502 ft 418 kts 295°
2026-04-22 20:05 -3.52920 38.93288 23890 ft 421 kts 295°
2026-04-22 20:05 -3.51667 38.90628 24269 ft 424 kts 295°
2026-04-22 20:06 -3.50407 38.87954 24685 ft 426 kts 295°
2026-04-22 20:06 -3.49040 38.85317 25085 ft 427 kts 305°
2026-04-22 20:06 -3.47087 38.83081 25489 ft 427 kts 315°
2026-04-22 20:06 -3.45022 38.80987 25853 ft 430 kts 316°
2026-04-22 20:07 -3.42901 38.78859 26229 ft 432 kts 316°
2026-04-22 20:07 -3.40773 38.76717 26618 ft 434 kts 315°
2026-04-22 20:07 -3.38645 38.74559 27010 ft 436 kts 315°
2026-04-22 20:07 -3.36521 38.72388 27465 ft 435 kts 315°
2026-04-22 20:08 -3.34409 38.70219 27998 ft 433 kts 315°
2026-04-22 20:08 -3.32315 38.68060 28534 ft 431 kts 315°
2026-04-22 20:08 -3.30258 38.65935 29031 ft 430 kts 315°
2026-04-22 20:08 -3.28175 38.63782 29441 ft 432 kts 315°
2026-04-22 20:09 -3.26072 38.61609 29767 ft 435 kts 314°
2026-04-22 20:09 -3.23959 38.59425 30000 ft 440 kts 315°
2026-04-22 20:09 -3.21822 38.57217 29985 ft 441 kts 315°
2026-04-22 20:10 -3.17601 38.52857 29973 ft 430 kts 314°
2026-04-22 20:10 -3.13429 38.48548 29994 ft 432 kts 314°
2026-04-22 20:11 -3.09242 38.44226 29991 ft 433 kts 314°
2026-04-22 20:11 -3.05069 38.39917 29991 ft 434 kts 314°
2026-04-22 20:12 -3.00862 38.35575 29997 ft 435 kts 315°
2026-04-22 20:12 -2.96650 38.31227 29985 ft 433 kts 315°
2026-04-22 20:13 -2.92467 38.26911 29993 ft 430 kts 315°
2026-04-22 20:13 -2.89545 38.23895 29994 ft 428 kts 315°
2026-04-22 20:14 -2.86559 38.20814 29994 ft 426 kts 315°
2026-04-22 20:15 -2.82435 38.16559 30005 ft 426 kts 315°
2026-04-22 20:15 -2.78305 38.12299 30014 ft 427 kts 315°
2026-04-22 20:16 -2.74162 38.08025 30029 ft 429 kts 315°
2026-04-22 20:16 -2.69993 38.03726 30030 ft 430 kts 314°
2026-04-22 20:17 -2.65849 37.99452 30029 ft 429 kts 314°
2026-04-22 20:17 -2.61705 37.95178 30031 ft 426 kts 314°
2026-04-22 20:18 -2.57578 37.90923 30036 ft 425 kts 314°
2026-04-22 20:18 -2.53428 37.86644 30056 ft 430 kts 314°
2026-04-22 20:18 -2.51348 37.84501 29830 ft 429 kts 314°
2026-04-22 20:19 -2.49310 37.82399 29519 ft 423 kts 314°
2026-04-22 20:19 -2.47269 37.80294 29121 ft 420 kts 315°
2026-04-22 20:19 -2.45243 37.78206 28746 ft 416 kts 314°
2026-04-22 20:19 -2.43239 37.76140 28347 ft 413 kts 315°
2026-04-22 20:20 -2.41246 37.74086 27963 ft 410 kts 314°
2026-04-22 20:20 -2.39271 37.72050 27587 ft 406 kts 314°
2026-04-22 20:20 -2.37312 37.70032 27199 ft 403 kts 314°
2026-04-22 20:20 -2.35365 37.68025 26818 ft 401 kts 315°
2026-04-22 20:21 -2.33426 37.66027 26439 ft 398 kts 315°
2026-04-22 20:21 -2.31501 37.64043 26059 ft 396 kts 315°
2026-04-22 20:21 -2.29584 37.62068 25675 ft 394 kts 315°
2026-04-22 20:21 -2.27702 37.60128 25303 ft 393 kts 315°
2026-04-22 20:22 -2.25797 37.58166 24912 ft 392 kts 315°
2026-04-22 20:22 -2.23896 37.56208 24525 ft 392 kts 315°
2026-04-22 20:22 -2.22005 37.54259 24134 ft 388 kts 315°
2026-04-22 20:22 -2.20129 37.52326 23772 ft 387 kts 315°
2026-04-22 20:23 -2.18257 37.50397 23345 ft 386 kts 315°
2026-04-22 20:23 -2.16387 37.48470 22957 ft 384 kts 315°
2026-04-22 20:23 -2.14530 37.46556 22571 ft 382 kts 315°
2026-04-22 20:23 -2.12686 37.44657 22207 ft 380 kts 315°
2026-04-22 20:24 -2.10853 37.42770 21847 ft 377 kts 315°
2026-04-22 20:24 -2.09061 37.40902 21480 ft 375 kts 314°
2026-04-22 20:24 -2.07285 37.39018 21112 ft 368 kts 314°
2026-04-22 20:24 -2.05546 37.37168 20767 ft 361 kts 314°
2026-04-22 20:25 -2.03720 37.35462 20403 ft 357 kts 329°
2026-04-22 20:25 -2.01485 37.34456 20101 ft 350 kts 345°
2026-04-22 20:25 -1.99148 37.33810 19774 ft 348 kts 347°
2026-04-22 20:25 -1.96798 37.33218 19420 ft 347 kts 348°
2026-04-22 20:26 -1.94464 37.32640 19074 ft 343 kts 348°
2026-04-22 20:26 -1.92156 37.32063 18734 ft 342 kts 347°
2026-04-22 20:26 -1.89852 37.31480 18380 ft 342 kts 347°
2026-04-22 20:26 -1.87548 37.30890 17998 ft 341 kts 347°
2026-04-22 20:27 -1.85258 37.30298 17634 ft 339 kts 347°
2026-04-22 20:27 -1.82978 37.29707 17283 ft 338 kts 347°
2026-04-22 20:27 -1.80741 37.29124 16957 ft 336 kts 347°
2026-04-22 20:27 -1.78484 37.28535 16613 ft 334 kts 347°
2026-04-22 20:28 -1.76240 37.27949 16270 ft 331 kts 347°
2026-04-22 20:28 -1.74023 37.27369 15932 ft 329 kts 347°
2026-04-22 20:28 -1.71809 37.26791 15585 ft 328 kts 347°
2026-04-22 20:28 -1.69603 37.26214 15277 ft 327 kts 347°
2026-04-22 20:29 -1.67405 37.25640 14944 ft 326 kts 347°
2026-04-22 20:29 -1.65216 37.25068 14613 ft 325 kts 347°
2026-04-22 20:29 -1.63043 37.24500 14263 ft 319 kts 346°
2026-04-22 20:29 -1.60920 37.23945 13944 ft 314 kts 346°
2026-04-22 20:30 -1.58806 37.23392 13578 ft 314 kts 347°
2026-04-22 20:30 -1.56726 37.22849 13259 ft 312 kts 347°
2026-04-22 20:30 -1.54624 37.22300 12931 ft 312 kts 347°
2026-04-22 20:30 -1.52529 37.21752 12603 ft 311 kts 347°
2026-04-22 20:31 -1.50432 37.21205 12296 ft 309 kts 347°
2026-04-22 20:31 -1.48351 37.20661 11969 ft 309 kts 347°
2026-04-22 20:31 -1.46275 37.20118 11655 ft 308 kts 347°
2026-04-22 20:31 -1.44212 37.19579 11324 ft 303 kts 347°
2026-04-22 20:32 -1.42191 37.19051 11006 ft 298 kts 346°
2026-04-22 20:32 -1.40193 37.18528 10721 ft 296 kts 346°
2026-04-22 20:32 -1.38227 37.18015 10425 ft 296 kts 346°
2026-04-22 20:32 -1.36270 37.17503 10279 ft 285 kts 346°
2026-04-22 20:33 -1.34373 37.17007 10083 ft 281 kts 346°
2026-04-22 20:33 -1.32487 37.16515 9773 ft 280 kts 346°
2026-04-22 20:33 -1.30599 37.16021 9381 ft 278 kts 346°
2026-04-22 20:33 -1.28774 37.15544 9227 ft 264 kts 346°
2026-04-22 20:34 -1.27141 37.14866 9137 ft 247 kts 326°
2026-04-22 20:34 -1.25809 37.13872 9090 ft 233 kts 324°
2026-04-22 20:34 -1.24532 37.12927 9000 ft 226 kts 324°
2026-04-22 20:34 -1.23281 37.12012 8941 ft 221 kts 324°
2026-04-22 20:35 -1.22041 37.11111 8789 ft 222 kts 324°
2026-04-22 20:35 -1.20989 37.09987 8543 ft 225 kts 294°
2026-04-22 20:35 -1.20774 37.08477 8352 ft 221 kts 256°
2026-04-22 20:35 -1.21397 37.07093 8159 ft 218 kts 233°
2026-04-22 20:36 -1.22273 37.05884 7931 ft 211 kts 231°
2026-04-22 20:36 -1.23143 37.04726 7707 ft 206 kts 231°
2026-04-22 20:36 -1.23990 37.03590 7478 ft 200 kts 231°
2026-04-22 20:36 -1.24800 37.02494 7241 ft 192 kts 231°
2026-04-22 20:37 -1.25577 37.01440 7104 ft 180 kts 231°
2026-04-22 20:37 -1.26288 37.00472 7001 ft 167 kts 230°
2026-04-22 20:37 -1.26958 36.99536 6626 ft 167 kts 231°
2026-04-22 20:37 -1.27653 36.98595 6188 ft 167 kts 232°
2026-04-22 20:38 -1.28328 36.97683 5874 ft 160 kts 234°
2026-04-22 20:38 -1.28976 36.96808 5585 ft 152 kts 234°
2026-04-22 20:38 -1.29590 36.95955 5457 ft 151 kts 233°
2026-04-22 20:38 -1.30215 36.95118 5361 ft 153 kts 234°
2026-04-22 20:39 -1.30855 36.94238 5294 ft 157 kts 234°
2026-04-22 20:39 -1.31498 36.93357 5300 ft 153 kts 232°
2026-04-22 20:39 -1.32050 36.92607 5314 ft 110 kts 234°
2026-04-22 20:39 -1.32395 36.92135 5315 ft 50 kts 234°
2026-04-22 20:40 -1.32527 36.91955 5325 ft 33 kts 233°
2026-04-22 20:40 -1.32654 36.91782 5333 ft 26 kts 230°
2026-04-22 20:40 -1.32768 36.91700 5334 ft 17 kts 193°
2026-04-22 20:40 -1.32852 36.91737 5334 ft 11 kts 146°
2026-04-22 20:41 -1.32905 36.91770 5337 ft 8 kts 147°
2026-04-22 20:41 -1.32948 36.91801 5338 ft 7 kts 140°
2026-04-22 20:41 -1.32997 36.91826 5337 ft 10 kts 178°
2026-04-22 20:41 -1.33067 36.91776 5321 ft 13 kts 236°
2026-04-22 20:42 -1.33110 36.91713 5322 ft 10 kts 232°
2026-04-22 20:42 -1.33154 36.91662 5314 ft 9 kts 225°
2026-04-22 20:42 -1.33205 36.91622 5324 ft 9 kts 220°
2026-04-22 20:42 -1.33244 36.91579 5323 ft 7 kts 232°
2026-04-22 20:43 -1.33281 36.91555 5322 ft 7 kts 165°
2026-04-22 20:43 -1.33307 36.91577 5323 ft 4 kts 140°
2026-04-22 20:43 -1.33326 36.91591 5319 ft 3 kts 143°
2026-04-22 20:43 -1.33341 36.91602 5316 ft 2 kts 143°
2026-04-22 20:44 -1.33349 36.91608 5323 ft 1 kts 143°
2026-04-22 20:44 -1.33352 36.91610 5323 ft 0 kts 143°